When you browse on this site, cookies collect data to enhance your experience and personalize the content and advertising you see.
Visit our Privacy Policy to learn more. By continuing to use the site, you agree to this use of cookies and data.
  • In United Kingdom
  • List of Countries
  • For 7 days
  • Water Temperature
  • Satellite Maps
  • Weather Map
  • Weather Widgets
  • user-avatar
    Login

    Hourly Weather Mardan

    Today, 23 April, Tuesday

    Time Temperature Precipitation Wind Pressure Humidity
    00:00 +28°C° 0.1 mm 2 mps 730 mmHg 36%
    01:00 +27°C° 0.1 mm 2 mps 730 mmHg 37%
    02:00 +26°C° 0.1 mm 2 mps 731 mmHg 38%
    03:00 +26°C° 0.1 mm 2 mps 731 mmHg 37%
    04:00 +25°C° 0.1 mm 2 mps 731 mmHg 35%
    05:00 +24°C° 0 mm 2 mps 730 mmHg 39%
    06:00 +26°C° 0 mm 2 mps 730 mmHg 36%
    07:00 +27°C° 0 mm 2 mps 731 mmHg 33%
    08:00 +28°C° 0 mm 2 mps 731 mmHg 30%
    09:00 +31°C° 0 mm 2 mps 731 mmHg 26%
    10:00 +34°C° 0 mm 2 mps 731 mmHg 22%
    11:00 +35°C° 0 mm 1 mps 731 mmHg 18%
    12:00 +36°C° 0 mm 1 mps 731 mmHg 18%
    13:00 +36°C° 0 mm 1 mps 731 mmHg 18%
    14:00 +37°C° 0 mm 1 mps 731 mmHg 17%
    15:00 +37°C° 0.2 mm 2 mps 731 mmHg 20%
    16:00 +37°C° 0.2 mm 2 mps 731 mmHg 24%
    17:00 +36°C° 0.2 mm 2 mps 731 mmHg 27%
    18:00 +34°C° 0.8 mm 2 mps 731 mmHg 34%
    19:00 +31°C° 0.8 mm 3 mps 731 mmHg 40%
    20:00 +28°C° 0.8 mm 4 mps 732 mmHg 47%
    21:00 +28°C° 0.2 mm 3 mps 732 mmHg 48%
    22:00 +27°C° 0.2 mm 3 mps 732 mmHg 49%
    23:00 +27°C° 0.2 mm 3 mps 732 mmHg 50%

    Tomorrow, 24 April, Wednesday

    Time Temperature Precipitation Wind Pressure Humidity
    00:00 +26°C° 0.2 mm 3 mps 732 mmHg 51%
    01:00 +26°C° 0.2 mm 3 mps 732 mmHg 52%
    02:00 +25°C° 0.2 mm 2 mps 732 mmHg 53%
    03:00 +25°C° 0.3 mm 3 mps 732 mmHg 56%
    04:00 +24°C° 0.3 mm 3 mps 731 mmHg 59%
    05:00 +24°C° 0.3 mm 3 mps 731 mmHg 62%
    06:00 +24°C° 0.2 mm 3 mps 731 mmHg 59%
    07:00 +25°C° 0.2 mm 2 mps 732 mmHg 56%
    08:00 +26°C° 0.2 mm 2 mps 732 mmHg 52%
    09:00 +28°C° 0.1 mm 2 mps 732 mmHg 46%
    10:00 +30°C° 0.1 mm 2 mps 732 mmHg 39%
    11:00 +32°C° 0.1 mm 2 mps 732 mmHg 33%
    12:00 +35°C° 0 mm 2 mps 732 mmHg 30%
    13:00 +36°C° 0 mm 2 mps 732 mmHg 27%
    14:00 +37°C° 0 mm 2 mps 731 mmHg 25%
    15:00 +37°C° 0 mm 2 mps 731 mmHg 25%
    16:00 +37°C° 0 mm 2 mps 730 mmHg 25%
    17:00 +37°C° 0 mm 2 mps 730 mmHg 25%
    18:00 +36°C° 0 mm 2 mps 730 mmHg 28%
    19:00 +34°C° 0 mm 2 mps 730 mmHg 32%
    20:00 +31°C° 0 mm 2 mps 730 mmHg 35%
    21:00 +30°C° 0.2 mm 2 mps 730 mmHg 40%
    22:00 +28°C° 0.2 mm 2 mps 731 mmHg 44%
    23:00 +27°C° 0.2 mm 3 mps 731 mmHg 49%

    Day after tomorrow, 25 April, Thursday

    Time Temperature Precipitation Wind Pressure Humidity
    00:00 +26°C° 0.1 mm 3 mps 731 mmHg 51%
    01:00 +25°C° 0.1 mm 3 mps 731 mmHg 54%
    02:00 +25°C° 0.1 mm 3 mps 731 mmHg 57%
    03:00 +24°C° 0 mm 2 mps 731 mmHg 57%
    04:00 +24°C° 0 mm 2 mps 731 mmHg 57%
    05:00 +23°C° 0 mm 2 mps 731 mmHg 58%
    06:00 +25°C° 0 mm 2 mps 731 mmHg 53%
    07:00 +26°C° 0 mm 1 mps 732 mmHg 49%
    08:00 +28°C° 0 mm 1 mps 732 mmHg 44%
    09:00 +30°C° 0 mm 1 mps 732 mmHg 39%
    10:00 +32°C° 0 mm 1 mps 732 mmHg 34%
    11:00 +34°C° 0 mm 1 mps 733 mmHg 29%
    12:00 +34°C° 0 mm 1 mps 732 mmHg 28%
    13:00 +36°C° 0 mm 2 mps 732 mmHg 26%
    14:00 +37°C° 0 mm 2 mps 731 mmHg 25%
    15:00 +37°C° 0 mm 2 mps 731 mmHg 24%
    16:00 +37°C° 0 mm 2 mps 731 mmHg 23%
    17:00 +36°C° 0 mm 1 mps 730 mmHg 22%
    18:00 +35°C° 0 mm 2 mps 731 mmHg 25%
    19:00 +32°C° 0 mm 2 mps 731 mmHg 27%
    20:00 +31°C° 0 mm 2 mps 731 mmHg 30%
    21:00 +30°C° 0 mm 3 mps 731 mmHg 32%
    22:00 +29°C° 0 mm 3 mps 731 mmHg 34%
    23:00 +28°C° 0 mm 3 mps 732 mmHg 36%

    26 April, Friday

    Time Temperature Precipitation Wind Pressure Humidity
    00:00 +27°C° 0 mm 3 mps 732 mmHg 39%
    01:00 +26°C° 0 mm 3 mps 731 mmHg 41%
    02:00 +25°C° 0 mm 3 mps 731 mmHg 43%
    03:00 +25°C° 0 mm 3 mps 731 mmHg 43%
    04:00 +24°C° 0 mm 2 mps 731 mmHg 43%
    05:00 +24°C° 0 mm 2 mps 731 mmHg 43%
    06:00 +25°C° 0 mm 2 mps 731 mmHg 40%
    07:00 +26°C° 0 mm 2 mps 732 mmHg 38%
    08:00 +28°C° 0 mm 2 mps 732 mmHg 35%
    09:00 +30°C° 0 mm 2 mps 732 mmHg 31%
    10:00 +32°C° 0 mm 1 mps 733 mmHg 27%
    11:00 +34°C° 0 mm 1 mps 733 mmHg 23%
    12:00 +35°C° 0 mm 1 mps 732 mmHg 21%
    13:00 +36°C° 0 mm 1 mps 732 mmHg 20%
    14:00 +37°C° 0 mm 1 mps 732 mmHg 18%
    15:00 +36°C° 0 mm 1 mps 731 mmHg 19%
    16:00 +36°C° 0 mm 1 mps 731 mmHg 19%
    17:00 +37°C° 0 mm 2 mps 730 mmHg 19%
    18:00 +35°C° 0 mm 2 mps 731 mmHg 21%
    19:00 +32°C° 0 mm 2 mps 731 mmHg 24%
    20:00 +31°C° 0 mm 1 mps 732 mmHg 26%
    21:00 +30°C° 0 mm 2 mps 732 mmHg 29%
    22:00 +29°C° 0 mm 3 mps 732 mmHg 31%
    23:00 +28°C° 0 mm 3 mps 732 mmHg 33%

    27 April, Saturday

    Time Temperature Precipitation Wind Pressure Humidity
    00:00 +27°C° 0 mm 3 mps 732 mmHg 34%
    01:00 +26°C° 0 mm 3 mps 732 mmHg 35%
    02:00 +26°C° 0 mm 2 mps 732 mmHg 36%
    03:00 +25°C° 0 mm 2 mps 732 mmHg 35%
    04:00 +25°C° 0 mm 2 mps 732 mmHg 35%
    05:00 +25°C° 0 mm 2 mps 732 mmHg 35%
    06:00 +26°C° 0 mm 2 mps 732 mmHg 33%
    07:00 +27°C° 0 mm 2 mps 732 mmHg 32%
    08:00 +28°C° 0 mm 2 mps 732 mmHg 30%
    09:00 +30°C° 0 mm 2 mps 732 mmHg 27%
    10:00 +34°C° 0 mm 2 mps 733 mmHg 23%
    11:00 +36°C° 0 mm 2 mps 733 mmHg 19%
    12:00 +37°C° 0 mm 2 mps 732 mmHg 18%
    13:00 +37°C° 0 mm 2 mps 731 mmHg 16%
    14:00 +38°C° 0 mm 2 mps 731 mmHg 15%
    15:00 +37°C° 0 mm 1 mps 730 mmHg 15%
    16:00 +37°C° 0 mm 1 mps 730 mmHg 15%
    17:00 +37°C° 0 mm 1 mps 730 mmHg 15%
    18:00 +35°C° 0 mm 1 mps 730 mmHg 17%
    19:00 +34°C° 0 mm 2 mps 730 mmHg 19%
    20:00 +31°C° 0 mm 2 mps 730 mmHg 20%
    21:00 +30°C° 0 mm 2 mps 731 mmHg 23%
    22:00 +29°C° 0 mm 3 mps 731 mmHg 27%
    23:00 +27°C° 0 mm 3 mps 731 mmHg 30%

    28 April, Sunday

    Time Temperature Precipitation Wind Pressure Humidity
    00:00 +27°C° 0 mm 3 mps 731 mmHg 32%
    01:00 +26°C° 0 mm 3 mps 730 mmHg 35%
    02:00 +25°C° 0 mm 3 mps 730 mmHg 37%
    03:00 +25°C° 0 mm 3 mps 730 mmHg 38%
    04:00 +24°C° 0 mm 2 mps 730 mmHg 39%
    05:00 +24°C° 0 mm 2 mps 730 mmHg 39%
    06:00 +25°C° 0 mm 2 mps 731 mmHg 37%
    07:00 +27°C° 0 mm 2 mps 731 mmHg 34%
    08:00 +28°C° 0 mm 2 mps 731 mmHg 32%
    09:00 +30°C° 0 mm 2 mps 731 mmHg 28%
    10:00 +32°C° 0 mm 2 mps 732 mmHg 23%
    11:00 +35°C° 0 mm 2 mps 732 mmHg 19%
    12:00 +36°C° 0 mm 2 mps 731 mmHg 17%
    13:00 +37°C° 0 mm 2 mps 731 mmHg 15%
    14:00 +38°C° 0 mm 2 mps 730 mmHg 13%
    15:00 +38°C° 0 mm 2 mps 730 mmHg 13%
    16:00 +38°C° 0 mm 2 mps 730 mmHg 13%
    17:00 +38°C° 0 mm 2 mps 729 mmHg 13%
    18:00 +36°C° 0 mm 2 mps 730 mmHg 15%
    19:00 +32°C° 0 mm 1 mps 730 mmHg 17%
    20:00 +30°C° 0 mm 1 mps 730 mmHg 19%
    21:00 +30°C° 0 mm 2 mps 731 mmHg 20%
    22:00 +29°C° 0 mm 2 mps 731 mmHg 22%
    23:00 +28°C° 0 mm 3 mps 731 mmHg 23%
    Show more